Location: A�t Lahcen
(32.8243°N, 5.4246°W)
Time: 01:53:47
(UTC+00:00)

H-2A R/B - Pass Details

Date: 27 January 2021
Orbit: 577 x 655 km, 98.5° (Epoch: 26 February)

Event Time Altitude Azimuth Distance (km) Brightness Sun altitude
Rises 05:21:38 0° 180° (S) 2,937 5.6 -24.8°
Reaches altitude 10° 05:23:53 10° 186° (S) 2,040 4.7 -24.4°
Enters shadow 05:25:20 20° 194° (SSW) 1,497 3.9 -24.1°
